Weather History for Morrisville, VT

Change the Weather History Date:

Sunday, June 16, 2013

  Actual Average Record
Temperature  
Mean Temperature 58 °F 63 °F  
Max Temperature 71 °F 75 °F 91 °F (2001)
Min Temperature 45 °F 51 °F 37 °F (1999)
Degree Days  
Heating Degree Days 7 4  
Month to date heating degree days 103 90  
Since 1 June heating degree days 103 90  
Since 1 July heating degree days 7636 8221  
Cooling Degree Days 0 2  
Month to date cooling degree days 18 17  
Year to date cooling degree days 38 25  
Since 1 June cooling degree days 18 17  
Growing Degree Days 8 (Base 50)    
Moisture  
Dew Point 55 °F    
Average Humidity 77    
Maximum Humidity 97    
Minimum Humidity 57    
Precipitation  
Precipitation 0.42 in 0.13 in 0.42 in (2013)
Month to date precipitation 4.06 2.01  
Year to date precipitation 16.07 13.63  
Sea Level Pressure  
Sea Level Pressure 29.79 in    
Wind  
Wind Speed 2 mph (WSW)    
Max Wind Speed 13 mph    
Max Gust Speed 18 mph    
Visibility 6 miles    
Events Rain    
T = Trace of Precipitation, MM = Missing Value Source: NWS Daily Summary

Daily Weather History Graph

Daily Weather History Graph

Search for Another Location

Airport:

Trip Planner

Search our weather history database for the weather conditions in past years. The results will help you decide how hot, cold, wet, or windy it might be!

Date:

Astronomy

Jun. 16, 2013 Rise Set
Actual Time 5:04 AM EDT 8:37 PM EDT
Civil Twilight 4:28 AM EDT 9:14 PM EDT
Nautical Twilight 3:39 AM EDT 10:03 PM EDT
Astronomical Twilight 2:36 AM EDT 11:06 PM EDT
Moon 12:55 PM EDT (6/16) 12:25 AM EDT (6/16)
Length of Visible Light 16h 46m
Length of Day
15h 32m
Waxing Crescent, 49% of the Moon is Illuminated
Jun 16
Waxing Crescent
Jun 16
First Quarter
Jun 23
Full
Jun 30
Last Quarter
Jul 8
New

Hourly Weather History & Observations

Time (EDT) Temp. Dew Point Humidity Pressure Visibility Wind Dir Wind Speed Gust Speed Precip Events Conditions
12:54 AM 48.0 °F 45.0 °F 89% 29.93 in 10.0 mi Calm Calm - N/A   Clear
1:54 AM 48.0 °F 45.0 °F 89% 29.93 in 10.0 mi South 3.5 mph - N/A   Clear
2:54 AM 46.9 °F 44.1 °F 90% 29.92 in 10.0 mi Calm Calm - N/A   Clear
3:54 AM 46.9 °F 44.1 °F 90% 29.92 in 10.0 mi Calm Calm - N/A   Clear
4:54 AM 46.9 °F 44.1 °F 90% 29.91 in 10.0 mi Calm Calm - N/A   Clear
5:54 AM 46.0 °F 44.1 °F 93% 29.91 in 10.0 mi Calm Calm - N/A   Clear
6:54 AM 51.1 °F 46.9 °F 86% 29.91 in 10.0 mi Calm Calm - N/A   Clear
7:54 AM 55.9 °F 48.9 °F 77% 29.90 in 10.0 mi Calm Calm - N/A   Overcast
8:54 AM 64.0 °F 52.0 °F 65% 29.88 in 10.0 mi Calm Calm - N/A   Overcast
9:54 AM 64.9 °F 50.0 °F 58% 29.86 in 10.0 mi Variable 3.5 mph - N/A   Overcast
10:54 AM 66.0 °F 52.0 °F 60% 29.83 in 10.0 mi SE 4.6 mph - N/A   Overcast
11:54 AM 70.0 °F 53.1 °F 55% 29.80 in 10.0 mi SSW 6.9 mph - N/A   Partly Cloudy
12:54 PM 64.9 °F 57.9 °F 78% 29.80 in 3.0 mi West 3.5 mph - 0.03 in Rain Light Rain
1:07 PM 62.6 °F 57.2 °F 82% 29.79 in 2.0 mi Calm Calm - 0.03 in Rain Rain
1:17 PM 62.6 °F 57.2 °F 82% 29.79 in 5.0 mi Calm Calm - 0.04 in Rain Light Rain
1:54 PM 63.0 °F 59.0 °F 87% 29.78 in 5.0 mi Calm Calm - 0.10 in Rain Light Rain
2:30 PM 62.6 °F 60.8 °F 94% 29.76 in 2.0 mi Calm Calm - 0.07 in Rain Rain
2:50 PM 62.6 °F 60.8 °F 94% 29.76 in 3.0 mi Calm Calm - 0.10 in Rain Light Rain
2:54 PM 62.1 °F 60.1 °F 93% 29.77 in 3.0 mi Calm Calm - 0.11 in Rain Light Rain
3:25 PM 60.8 °F 59.0 °F 94% 29.76 in 2.5 mi Calm Calm - 0.06 in Rain Light Rain
3:47 PM 60.8 °F 59.0 °F 94% 29.75 in 3.0 mi Calm Calm - 0.09 in Rain Light Rain
3:54 PM 61.0 °F 59.0 °F 93% 29.76 in 1.8 mi Calm Calm - 0.11 in Rain Rain
4:08 PM 60.8 °F 59.0 °F 94% 29.75 in 2.5 mi Calm Calm - 0.02 in Rain Light Rain
4:16 PM 60.8 °F 59.0 °F 94% 29.74 in 1.5 mi Calm Calm - 0.04 in Rain Rain
4:24 PM 60.8 °F 59.0 °F 94% 29.74 in 3.0 mi Calm Calm - 0.05 in Rain Light Rain
4:54 PM 62.1 °F 59.0 °F 90% 29.73 in 6.0 mi Calm Calm - 0.05 in   Overcast
5:30 PM 62.6 °F 60.8 °F 94% 29.72 in 2.5 mi Calm Calm - 0.01 in Rain Light Rain
5:39 PM 60.8 °F 59.0 °F 94% 29.72 in 4.0 mi Calm Calm - 0.01 in Rain Light Rain
5:54 PM 61.0 °F 59.0 °F 93% 29.72 in 4.0 mi Calm Calm - 0.01 in   Overcast
6:01 PM 60.8 °F 59.0 °F 94% 29.71 in 4.0 mi Calm Calm - 0.00 in Rain Light Rain
6:54 PM 60.1 °F 57.9 °F 93% 29.72 in 2.5 mi Calm Calm - 0.01 in   Overcast
7:13 PM 60.8 °F 59.0 °F 94% 29.71 in 4.0 mi South 3.5 mph - N/A   Overcast
7:15 PM 60.8 °F 59.0 °F 94% 29.71 in 4.0 mi Calm Calm - N/A   Overcast
7:28 PM 60.8 °F 59.0 °F 94% 29.72 in 6.0 mi Calm Calm - N/A   Overcast
7:54 PM 61.0 °F 59.0 °F 93% 29.73 in 5.0 mi Calm Calm - N/A   Overcast
8:17 PM 60.8 °F 57.2 °F 88% 29.72 in 10.0 mi Variable 3.5 mph - N/A   Overcast
8:54 PM 61.0 °F 57.9 °F 90% 29.73 in 10.0 mi Variable 3.5 mph - N/A   Overcast
9:54 PM 62.1 °F 57.9 °F 86% 29.77 in 10.0 mi West 4.6 mph - N/A   Overcast
10:30 PM 62.6 °F 57.2 °F 82% 29.78 in 10.0 mi WNW 8.1 mph - N/A   Overcast
10:46 PM 62.6 °F 55.4 °F 77% 29.78 in 10.0 mi NW 11.5 mph 18.4 mph N/A   Overcast
10:54 PM 61.0 °F 55.9 °F 83% 29.78 in 10.0 mi NW 11.5 mph - N/A   Overcast
11:54 PM 60.1 °F 54.0 °F 80% 29.81 in 10.0 mi NW 9.2 mph - N/A   Overcast